Theta_e
296 296 296 296 296 296 296 297 298 300 303 303 303 305 307 307 306 307 307 309 309 309 311 312 312 313 311 309 310 311 312 311 311 310 309 309 309 309 309 310 310 310 309 308 308 310 312 313 312 315 315 313 313 312 312 311 310 311 313 313 315 318 319 315 309 309 309 308 307 306 306 307 309 309 307 308 312 315 316 317 316 314 311 312 313 313 314
296 296 296 296 296 296 296 296 298 302 304 304 304 305 307 307 307 306 307 309 310 309 309 310 311 312 312 312 311 310 310 311 311 310 309 308 308 310 310 308 308 308 308 308 308 309 311 311 311 313 314 312 311 311 312 314 315 315 314 316 317 316 317 315 310 309 309 309 310 308 308 309 309 308 307 307 309 313 315 315 315 314 312 313 313 313 314
296 296 296 296 296 296 296 296 299 302 304 304 304 305 305 306 307 306 306 307 308 307 306 306 307 310 312 312 309 308 309 309 308 308 308 306 305 308 309 306 306 307 308 309 308 307 309 311 311 311 312 311 309 309 311 314 317 316 312 313 315 314 313 314 312 311 311 310 310 310 310 310 309 307 307 307 308 313 315 313 313 313 311 311 312 314 314
296 296 296 296 296 296 296 297 299 302 304 304 305 305 305 306 307 306 306 306 306 305 305 305 305 307 308 309 306 306 308 308 306 307 307 305 304 305 304 304 306 308 309 311 311 307 307 309 310 309 309 310 308 307 311 313 315 316 311 309 314 316 312 310 311 310 310 309 307 307 308 310 309 308 308 308 307 311 315 313 312 313 311 311 312 314 316
295 295 296 296 296 296 296 297 299 302 304 304 305 304 304 304 304 304 305 305 305 305 305 304 305 305 305 305 304 304 305 306 307 307 306 305 304 304 303 302 306 309 311 314 312 308 308 308 308 307 307 308 308 306 307 308 311 315 312 310 318 321 314 309 310 308 306 306 306 306 307 308 308 309 310 310 310 312 315 314 313 313 312 313 313 314 316
295 295 295 295 296 296 296 296 299 302 303 303 304 304 303 303 303 302 303 304 304 304 305 304 304 305 305 304 303 303 303 304 305 305 305 305 304 305 305 302 302 303 306 312 311 308 309 308 307 307 306 307 310 308 307 306 306 310 311 311 318 323 316 311 310 308 307 308 308 308 308 307 307 308 308 309 312 315 315 311 310 312 313 313 313 312 313
295 295 295 295 295 295 295 296 298 300 302 303 304 304 303 302 302 301 302 302 302 302 304 304 305 305 306 304 303 303 303 303 302 301 305 307 304 304 306 303 301 301 303 308 309 307 309 308 306 306 307 307 310 310 310 308 306 308 313 311 314 318 315 311 310 310 309 309 309 309 310 309 308 308 307 307 308 310 310 308 307 309 311 310 310 310 308
295 295 295 295 295 295 295 296 297 299 301 302 302 302 302 302 302 301 301 300 301 301 302 304 305 305 305 304 303 302 302 303 302 300 303 307 304 303 304 303 301 301 302 305 305 303 305 306 305 305 307 308 307 307 307 307 305 308 313 312 312 314 313 312 313 312 310 311 311 312 312 310 309 309 309 310 310 310 309 308 308 309 309 308 309 309 306
295 295 295 295 295 295 295 295 297 299 300 301 301 301 301 301 301 301 301 300 300 301 301 304 305 304 304 304 303 303 302 302 302 300 300 303 302 301 303 303 302 302 302 303 302 301 301 303 303 303 305 306 305 305 305 305 305 307 309 310 313 314 312 310 312 312 310 309 310 311 312 311 310 311 312 313 313 312 308 305 305 308 309 309 311 310 306
295 295 295 294 294 295 295 295 298 299 300 300 301 300 300 301 301 301 301 300 299 298 300 303 304 303 303 303 303 303 302 302 303 303 301 301 300 300 301 303 303 303 303 303 301 300 300 301 301 302 303 303 303 304 304 303 304 306 307 309 311 312 310 309 311 312 309 307 308 310 311 312 311 310 308 307 308 307 306 304 302 303 306 308 311 308 304
295 295 295 295 295 295 295 296 298 299 299 299 300 300 300 300 300 300 301 301 299 297 298 300 301 302 302 302 303 302 303 303 303 303 302 301 301 300 300 302 305 304 302 301 300 300 301 301 302 302 302 302 302 303 303 303 303 303 304 308 309 310 310 310 310 311 308 306 307 309 310 311 310 305 302 304 305 305 305 304 301 301 303 304 305 303 301
295 295 295 295 295 295 296 296 298 299 299 298 299 299 299 300 300 299 300 301 298 297 299 298 298 299 300 301 302 302 302 303 302 301 302 302 301 300 300 301 304 304 302 301 301 302 302 302 303 303 303 304 304 304 304 305 304 302 303 306 309 309 308 307 306 307 306 305 307 310 310 308 305 302 301 303 303 303 303 301 300 301 302 302 302 301 300
295 295 295 295 295 296 296 297 298 298 299 298 298 298 298 299 299 299 298 299 298 297 298 298 297 298 299 299 301 301 301 301 301 300 300 301 302 301 300 300 301 301 301 302 302 303 304 305 306 305 304 306 307 306 304 303 304 304 304 305 307 309 307 305 304 304 305 306 307 309 308 304 302 301 302 302 303 303 304 303 300 300 300 301 301 300 300
295 295 295 295 296 296 296 296 297 298 299 299 299 298 298 298 299 298 298 298 298 296 297 298 297 298 299 298 299 300 300 300 301 301 301 300 301 301 300 300 300 300 301 302 302 303 305 306 308 306 304 305 308 308 305 303 303 304 304 305 307 309 308 306 305 303 304 307 306 304 305 304 303 303 302 302 303 303 303 303 301 299 299 300 300 300 300
295 295 295 295 296 296 296 296 297 298 298 299 298 298 298 297 298 299 298 298 299 298 297 297 297 297 298 298 298 299 300 300 301 302 301 300 300 300 300 299 299 301 302 302 303 305 305 305 306 305 304 305 306 305 305 304 303 301 302 303 306 308 309 310 308 303 303 306 306 304 306 307 305 303 301 301 301 300 301 302 301 299 298 299 300 300 300
295 295 295 295 296 296 295 295 296 298 298 299 298 298 298 297 297 298 298 298 299 298 297 297 296 296 297 298 298 298 299 299 300 301 302 301 299 300 300 300 300 301 301 301 303 305 305 304 303 303 303 303 303 303 303 304 303 302 302 302 304 306 307 308 308 304 304 307 308 307 307 306 303 301 301 300 299 299 301 304 302 299 297 298 299 300 299
295 295 295 295 295 295 295 295 296 297 298 298 298 298 297 297 297 297 297 297 297 297 297 297 297 297 297 298 298 298 298 298 298 299 301 300 298 299 300 300 300 300 301 302 304 304 304 303 302 302 302 301 301 303 303 303 304 303 303 303 304 305 304 304 306 305 303 306 307 305 304 303 301 300 300 300 298 299 303 306 304 299 297 297 298 299 299
296 295 295 295 295 295 295 295 295 296 298 298 298 298 297 297 297 297 297 297 297 297 297 297 297 297 297 298 298 298 298 298 298 298 299 298 298 298 298 299 299 299 300 302 303 302 301 301 301 301 301 300 300 302 302 302 302 302 301 302 303 303 302 302 303 303 302 304 306 304 302 301 300 299 299 298 299 301 305 305 301 298 297 297 298 298 298
296 296 295 295 295 295 295 296 296 296 297 297 298 298 298 297 297 297 297 297 297 297 297 297 297 297 297 297 297 297 297 297 298 298 298 299 298 298 298 298 298 299 299 300 300 299 299 299 299 299 300 300 300 301 300 300 300 300 300 301 301 301 301 301 301 301 300 302 303 303 302 300 298 298 299 299 302 304 303 299 297 297 298 298 297 298 298
296 296 296 295 296 296 295 296 296 296 296 297 297 298 298 298 298 297 297 297 297 297 297 297 297 297 297 297 297 297 297 297 297 297 298 298 298 298 299 299 298 298 299 299 299 298 298 298 298 298 299 299 300 300 299 298 298 298 299 300 300 300 301 301 300 299 299 300 302 304 303 299 297 299 299 300 302 302 299 297 297 298 298 297 298 298 298
296 296 296 296 296 296 296 296 296 296 296 296 297 298 298 298 298 297 297 297 297 297 297 297 297 297 297 297 297 297 297 297 297 297 297 298 298 298 299 298 298 298 298 298 298 298 297 298 298 298 298 298 299 299 299 298 298 298 298 299 299 299 300 301 300 299 301 303 302 301 300 298 298 299 300 299 299 298 297 298 299 298 298 298 298 298 298
296 296 296 296 296 296 295 296 296 296 296 296 297 298 298 298 298 297 297 297 297 297 297 297 297 297 297 297 297 297 297 297 297 297 297 298 298 298 298 298 298 298 298 298 298 298 298 298 298 298 298 298 298 298 297 298 299 298 298 299 300 299 299 300 300 299 300 301 300 298 298 298 298 299 299 298 298 298 298 299 298 298 298 298 298 298 298
295 296 296 296 296 296 295 296 296 297 296 296 297 297 298 298 297 297 297 297 297 297 297 297 297 297 296 297 297 297 297 297 297 297 297 298 297 297 297 298 298 298 298 298 298 298 298 298 297 298 298 297 297 297 297 297 298 298 297 298 298 298 297 299 300 299 298 299 299 298 299 298 298 298 298 298 298 298 298 298 297 298 298 297 298 298 297
295 295 296 296 296 296 295 295 296 297 297 296 295 296 297 298 298 298 298 297 297 297 297 297 297 297 296 296 296 296 297 297 297 297 297 297 297 297 297 297 298 297 297 298 297 297 298 297 296 297 298 297 297 297 297 297 297 297 297 297 297 297 296 298 299 298 298 299 299 298 298 298 298 298 298 298 298 298 297 297 298 297 297 297 297 297 296
295 295 295 296 296 295 295 295 297 298 298 296 294 294 296 298 298 298 298 298 297 297 297 297 297 296 296 296 296 296 296 296 297 297 296 296 296 297 297 297 297 297 297 297 297 297 297 296 296 297 297 297 296 296 296 297 297 296 297 297 297 297 297 298 298 297 297 298 298 297 297 297 297 298 298 298 298 298 297 297 297 297 297 297 296 296 296
294 294 295 296 296 296 295 295 297 297 297 296 294 294 295 297 297 298 298 297 297 297 297 298 297 296 296 296 296 296 296 296 296 296 296 296 296 296 296 296 296 296 296 296 297 297 296 296 296 297 297 296 296 296 296 296 296 296 297 297 297 297 297 297 297 297 297 297 297 297 297 297 297 297 298 298 297 297 297 297 297 297 296 296 296 295 295
294 294 295 295 296 296 295 295 296 297 296 296 295 294 295 295 297 297 297 297 298 297 297 297 297 297 296 296 296 296 296 297 296 296 296 296 296 296 296 296 296 296 296 296 296 296 296 296 296 296 296 295 295 296 296 296 296 297 297 297 297 297 297 296 297 298 297 297 298 298 297 298 298 297 297 297 297 297 297 296 296 296 296 295 295 295 294
294 294 294 295 296 296 295 295 296 296 295 295 295 295 294 294 295 296 297 297 297 297 297 297 297 297 297 296 296 296 296 296 296 296 296 296 296 296 296 295 296 296 296 296 296 296 296 296 296 295 295 295 295 295 295 296 296 297 297 297 297 297 297 297 297 298 298 298 298 298 297 297 298 297 297 297 297 297 296 296 296 295 295 294 294 294 293
294 294 294 294 295 296 296 295 295 296 296 295 295 295 295 294 294 294 295 296 297 297 297 297 297 297 297 297 296 296 296 296 296 296 297 297 297 296 295 296 296 296 295 295 295 295 295 295 295 296 296 295 295 295 295 296 296 297 297 297 297 297 297 296 297 298 297 297 297 297 297 297 297 297 297 297 297 296 296 295 295 294 294 294 293 293 292
294 294 294 294 295 296 296 295 295 296 296 296 295 295 295 295 295 294 294 295 296 296 297 297 298 297 297 297 297 297 297 297 297 297 297 297 297 296 296 295 296 296 295 295 295 295 295 294 295 296 296 295 294 294 294 295 296 297 298 298 297 297 297 296 297 297 297 297 297 297 297 297 297 297 297 296 296 296 295 295 294 294 293 293 292 292 291
294 294 294 294 294 295 296 296 296 297 297 297 296 296 296 297 296 294 293 294 296 296 296 296 297 297 296 297 297 297 297 297 297 297 297 297 297 296 296 295 296 296 295 295 295 294 294 294 295 296 296 295 294 294 295 295 295 296 297 298 297 297 297 297 297 297 297 297 297 297 297 297 297 297 296 296 296 295 295 294 294 293 292 292 291 291 291
294 294 294 294 294 294 295 296 297 297 297 298 298 298 298 297 296 295 294 294 295 296 296 296 296 296 296 297 297 297 297 297 297 297 297 297 296 296 296 295 296 296 295 295 295 294 294 294 294 295 296 295 295 295 296 295 294 295 297 297 297 297 297 297 297 297 297 297 297 297 297 296 296 296 296 296 295 295 294 293 293 292 291 290 290 290 290
294 294 294 294 294 294 295 296 296 297 297 297 298 299 298 297 296 295 294 294 295 297 297 297 296 296 296 297 297 297 297 297 297 296 296 296 296 296 296 295 295 295 295 295 295 294 294 294 294 295 295 295 294 294 295 295 295 295 296 297 297 298 297 297 297 297 297 297 296 297 297 296 296 296 296 295 294 294 293 293 292 291 290 290 290 290 290
294 294 294 294 294 294 294 295 296 297 298 297 298 299 299 297 296 295 294 294 296 297 297 297 297 297 296 297 297 297 297 297 297 297 297 296 296 296 296 295 295 295 295 295 294 294 294 294 294 295 295 294 293 293 294 295 295 295 295 297 297 297 297 297 297 297 297 297 297 297 296 296 296 295 295 295 294 293 292 292 292 291 290 291 291 291 290
294 294 294 294 294 294 294 295 296 297 298 298 298 298 298 297 296 294 294 294 295 296 296 296 297 297 297 297 297 297 297 297 297 296 296 296 296 295 295 295 295 295 295 295 294 294 294 294 294 294 293 293 294 294 295 295 295 295 295 296 297 297 297 297 297 297 297 297 296 296 296 296 295 295 295 294 293 292 292 292 291 291 291 291 292 292 292
295 294 294 294 294 294 295 296 297 297 298 298 298 298 298 297 296 294 294 295 295 295 295 296 296 295 296 296 296 296 297 297 296 296 296 296 296 295 295 295 295 294 294 294 293 293 294 294 294 293 292 293 294 295 295 295 295 295 295 296 296 297 297 297 297 297 296 296 296 296 296 295 295 295 294 293 293 292 292 292 291 291 291 292 292 292 292
294 294 294 294 294 295 296 297 298 298 298 298 298 298 297 297 296 295 295 295 296 295 295 296 296 295 295 295 295 296 297 297 296 296 296 296 295 295 294 294 294 293 293 293 293 293 294 294 293 293 293 294 295 295 295 295 295 295 295 296 296 296 297 297 296 296 296 296 296 296 295 295 295 295 294 293 292 293 292 291 291 291 292 292 292 292 292
294 294 294 294 294 296 297 298 298 299 299 298 298 297 297 297 297 297 297 297 298 298 297 296 296 295 294 295 296 296 296 296 296 296 296 295 295 294 294 294 293 293 292 292 292 292 293 293 292 292 293 295 295 295 295 295 295 295 295 295 296 296 297 297 297 296 296 296 296 295 295 295 295 295 294 293 293 293 292 292 291 292 292 292 292 292 292
294 294 295 295 295 297 298 298 298 298 298 298 297 297 297 297 297 297 297 298 298 298 298 298 297 296 296 296 296 296 296 296 296 296 295 295 295 295 294 293 293 292 292 292 292 292 293 292 290 290 293 295 295 294 294 294 295 295 295 295 296 296 297 297 297 295 295 295 295 295 295 295 295 295 294 293 293 292 292 292 292 292 292 292 291 291 291
295 295 295 295 296 296 296 296 296 297 297 297 297 297 297 297 296 295 296 297 297 297 297 298 297 297 297 297 296 296 296 297 296 296 295 295 295 294 293 293 292 292 292 293 292 292 293 292 290 290 293 295 294 294 295 295 295 296 296 295 296 296 297 297 296 295 294 295 295 296 295 295 295 295 294 293 292 292 292 292 292 292 292 291 291 291 291
295 295 296 296 296 296 296 296 296 296 296 296 297 296 295 295 295 294 295 296 296 295 295 296 296 296 296 296 296 296 296 297 296 296 295 295 294 294 294 293 292 292 293 292 291 291 292 292 291 292 293 294 294 294 295 295 295 296 296 296 296 296 296 295 294 294 294 295 296 296 295 294 294 294 294 293 293 293 293 292 292 291 291 291 291 291 290
295 296 296 296 296 296 296 297 297 297 296 296 296 295 293 294 295 295 294 295 295 294 295 295 296 296 296 296 296 296 296 296 296 296 295 295 294 294 293 292 291 292 293 292 291 291 292 292 292 293 294 294 294 294 295 295 296 296 296 296 295 295 295 295 294 294 295 295 295 295 294 293 293 293 293 293 293 293 292 292 291 291 291 291 291 290 290
295 295 296 296 296 296 297 297 296 295 295 296 297 296 295 294 294 294 294 295 294 295 295 296 295 295 296 296 296 296 296 296 296 295 295 294 294 293 293 292 292 292 292 291 291 292 293 292 293 294 294 294 295 295 294 295 295 296 296 296 295 295 295 295 294 294 295 295 295 295 295 293 293 293 293 293 293 293 292 291 291 291 291 291 291 290 290
295 295 296 296 296 295 296 296 295 295 295 296 296 296 296 296 294 294 295 296 296 295 296 296 296 296 296 296 296 296 296 296 296 295 295 294 293 293 293 293 293 291 291 292 292 292 291 291 292 293 294 294 295 295 294 294 295 296 296 296 295 295 295 295 294 294 295 295 295 295 295 294 293 293 293 293 293 293 292 292 292 292 292 292 291 290 290
296 295 295 296 295 295 295 295 295 295 295 295 295 295 296 296 295 295 295 296 296 295 296 296 296 296 297 297 297 297 296 296 296 295 294 293 293 293 293 292 291 291 291 292 292 291 291 292 293 294 294 294 295 295 295 295 295 295 296 296 295 295 295 295 294 294 295 295 295 295 295 294 294 294 293 293 293 292 292 292 292 292 293 292 291 291 290
296 295 295 296 296 295 294 295 295 295 294 294 294 295 295 295 295 295 295 295 295 295 296 296 296 296 297 297 297 296 296 295 295 295 293 293 293 293 292 291 292 292 292 292 292 293 293 294 294 294 294 295 295 295 295 295 294 295 295 296 296 296 295 295 294 294 295 295 295 295 295 295 294 294 294 293 292 292 292 292 292 293 293 292 292 291 290
296 295 295 296 296 295 294 295 295 295 294 294 295 295 295 295 295 295 295 295 295 295 296 296 296 296 296 296 296 295 295 294 295 294 293 293 294 293 292 292 293 293 293 293 294 294 294 294 294 295 295 295 295 295 295 295 295 295 295 295 296 296 295 295 294 294 295 295 295 295 295 295 295 295 294 294 293 292 291 292 292 293 293 293 292 291 290
296 295 295 295 295 294 294 294 295 294 294 295 295 295 295 295 295 295 295 295 296 296 296 296 295 295 295 295 295 294 294 294 294 294 293 293 294 294 293 294 294 293 292 293 294 295 294 294 294 295 295 295 295 295 295 295 295 294 295 295 296 296 295 295 294 294 295 295 295 295 295 295 294 294 294 294 293 292 291 292 293 293 293 293 292 291 290
296 296 295 295 294 293 293 294 294 295 295 295 295 295 295 295 295 295 295 295 296 296 296 295 295 295 295 294 294 294 293 294 294 294 293 294 294 294 294 295 295 294 292 292 293 295 295 294 295 295 295 295 295 295 295 295 295 295 295 295 295 295 295 295 294 295 295 295 294 294 294 295 295 295 294 294 294 293 292 292 293 293 293 293 292 291 290
296 295 295 295 295 294 293 294 295 295 295 294 295 295 295 295 296 296 296 295 296 296 296 295 295 295 294 294 294 294 294 293 293 294 294 294 294 293 293 294 295 295 294 293 294 295 295 295 295 295 295 295 295 295 295 295 295 295 295 295 295 295 295 295 294 294 295 295 295 294 294 294 295 295 295 295 294 293 292 292 293 293 293 293 292 292 291
295 295 295 295 295 294 294 294 295 296 295 295 295 295 295 295 296 296 295 295 295 295 295 295 294 294 294 295 295 295 294 294 293 293 294 293 292 292 293 295 295 294 294 295 295 295 295 295 295 295 295 295 295 295 295 295 295 295 295 295 295 295 295 294 294 294 294 294 295 295 294 294 294 295 295 295 295 294 294 293 293 293 293 293 292 292 292
295 296 296 295 295 295 294 295 295 295 296 296 296 296 295 295 295 295 295 295 295 295 295 295 294 294 295 295 295 294 295 294 294 293 293 292 291 292 294 295 295 294 295 295 295 295 295 295 295 295 295 295 295 295 295 295 295 295 295 295 295 295 294 294 294 293 293 293 294 294 294 294 294 294 294 295 295 295 295 294 294 293 293 293 293 292 292
Wind_Speed
23 24 25 26 27 27 27 27 26 27 24 22 19 11 10 9 7 10 6 2 7 6 2 1 2 1 2 1 2 2 1 1 1 0 0 1 0 0 1 1 2 2 1 2 2 2 2 1 1 1 2 3 3 1 5 4 2 1 1 1 0 1 1 2 2 1 1 0 1 1 1 2 2 3 2 1 1 1 1 1 2 3 3 2 2 3 3
23 25 26 27 28 27 27 26 24 24 23 21 19 10 6 6 9 14 11 3 5 3 1 2 2 2 4 2 1 2 0 0 1 1 1 1 1 0 1 1 0 1 0 1 1 1 1 0 1 0 2 1 2 4 4 3 2 3 1 1 0 1 1 1 3 3 1 1 2 2 1 1 1 2 2 1 2 4 3 2 2 3 2 2 3 3 3
24 25 27 28 29 28 28 26 23 22 21 18 16 9 6 4 4 12 16 12 9 6 2 1 1 2 3 2 4 4 1 3 3 2 2 3 2 1 1 1 1 1 2 2 2 2 0 0 2 1 1 2 3 7 6 6 4 5 6 6 3 2 0 1 2 5 4 4 2 1 1 1 1 2 2 2 1 2 3 3 2 4 3 2 2 2 4
24 26 27 28 29 29 28 26 22 21 20 16 13 10 7 4 2 5 11 16 18 13 7 4 1 1 2 1 4 5 2 3 6 5 4 4 3 2 2 3 1 1 2 2 2 3 2 1 2 2 3 1 2 7 8 9 8 10 16 15 7 2 2 3 3 2 1 1 1 3 1 1 1 2 4 5 4 3 1 3 3 3 4 3 1 1 6
24 26 27 28 29 29 28 27 23 20 20 14 11 12 9 4 2 3 4 7 11 10 11 11 5 2 2 1 4 6 4 3 4 5 4 4 5 3 3 5 3 0 0 2 2 3 3 4 3 2 2 1 2 5 8 10 8 6 12 14 9 3 2 3 6 7 5 3 3 4 4 5 5 4 4 5 5 4 1 3 2 2 4 4 1 2 5
24 26 27 28 29 29 28 27 23 20 21 15 10 13 12 5 2 2 2 2 3 4 8 10 8 7 5 2 4 8 8 5 5 5 3 5 7 3 2 8 8 2 2 2 2 3 3 4 4 2 3 2 2 4 5 7 10 5 3 4 5 4 2 1 3 6 7 7 7 8 8 7 6 7 6 6 7 5 4 4 2 0 1 2 4 5 4
24 25 27 28 29 29 29 27 24 21 20 15 13 14 11 6 4 4 5 4 3 4 7 9 8 9 6 4 6 9 10 8 6 5 2 3 8 6 2 7 10 6 2 2 3 3 2 3 3 2 3 3 2 3 2 4 10 6 2 2 2 3 2 2 3 5 6 8 7 7 9 7 6 8 7 6 7 8 8 5 3 5 6 5 8 10 8
24 25 26 27 28 29 28 27 24 22 18 15 17 18 11 6 5 5 5 6 6 7 6 7 4 7 6 4 6 8 10 9 6 6 5 3 5 7 4 5 8 7 7 6 5 4 3 3 3 2 1 2 2 2 2 2 7 6 2 1 2 2 3 4 4 4 3 6 6 6 8 8 6 5 5 5 6 6 6 5 4 6 8 6 8 10 8
24 24 25 26 27 28 28 26 24 23 20 19 22 21 13 9 8 6 4 4 7 6 4 4 2 4 6 5 5 7 8 9 5 4 7 7 4 5 4 4 3 4 9 9 6 4 4 2 3 4 3 2 1 1 1 0 4 5 3 1 2 2 4 3 3 3 2 2 3 5 7 7 4 2 3 5 4 3 4 4 3 2 4 7 7 6 5
24 24 24 26 26 27 26 25 24 24 23 23 24 21 16 11 9 7 4 3 7 6 3 4 3 3 4 4 4 5 6 10 6 3 5 9 9 7 5 3 1 3 8 8 7 9 8 6 7 7 5 4 3 1 2 2 2 3 2 1 1 1 5 5 3 4 3 1 2 3 4 3 3 2 1 2 2 2 3 4 5 5 0 3 3 4 5
24 24 24 25 25 25 24 23 22 23 25 25 23 21 19 14 10 8 4 3 6 7 3 4 5 2 4 4 2 3 6 9 9 5 3 7 11 13 11 7 2 3 5 9 12 12 7 3 3 2 2 1 1 3 5 6 5 4 2 1 1 2 5 4 2 3 3 3 4 4 2 2 1 3 2 2 1 4 5 4 6 6 3 3 6 7 7
24 24 24 24 24 23 22 21 20 22 24 24 22 21 19 16 12 10 6 4 4 6 3 4 4 2 5 6 2 2 4 5 6 6 3 4 10 16 16 11 4 3 9 15 12 4 1 3 2 2 2 4 5 7 9 9 7 6 6 3 1 2 4 2 2 2 3 4 5 5 3 2 2 5 2 1 4 9 12 10 9 8 6 8 11 10 9
24 24 24 24 23 22 21 19 18 19 21 21 21 21 19 16 12 10 8 5 2 5 2 2 7 8 8 8 5 4 5 5 4 3 2 3 8 13 15 12 7 10 15 15 9 3 3 2 1 1 1 3 2 5 9 10 7 7 8 6 2 2 2 2 2 2 3 4 4 3 1 1 2 3 2 3 4 5 8 10 9 8 6 6 11 11 10
22 24 24 23 22 21 20 18 16 17 18 18 19 18 18 16 12 10 10 7 2 5 4 2 6 11 9 9 8 4 5 8 6 3 4 5 5 7 13 15 13 13 13 10 7 4 1 1 1 1 1 1 1 2 4 6 7 7 7 4 2 2 2 2 2 1 2 3 2 0 1 1 2 3 1 0 1 0 1 4 5 5 5 3 8 9 8
21 23 23 23 21 20 20 18 15 14 16 17 17 16 15 16 13 9 10 8 4 6 11 6 5 8 7 8 9 5 3 6 5 3 6 8 7 8 14 18 16 13 10 5 4 3 1 0 1 1 0 1 1 0 1 2 4 6 5 4 3 3 2 1 1 0 1 3 3 1 1 2 3 4 1 1 1 2 2 2 4 3 4 2 5 6 5
20 21 22 22 20 19 19 18 15 13 14 15 15 15 14 16 17 13 12 10 5 3 10 10 7 7 5 6 10 7 3 3 3 3 3 7 11 14 16 16 15 14 11 5 3 3 1 0 1 1 1 1 0 1 2 1 1 2 4 6 6 6 3 2 2 1 1 2 3 3 2 0 1 1 1 3 3 3 3 2 3 2 2 2 5 5 4
19 20 21 21 20 18 18 18 15 12 12 13 14 16 14 14 15 17 19 20 14 7 10 13 11 8 5 5 7 7 4 4 3 2 2 4 8 14 18 18 15 16 14 6 1 2 3 2 1 1 2 1 1 0 1 2 2 2 4 5 6 5 3 2 2 2 2 2 1 2 2 0 2 2 4 6 3 3 5 4 4 3 2 4 7 7 7
18 19 20 20 19 17 17 18 16 12 11 12 13 15 16 14 13 13 16 19 14 9 12 16 15 12 8 6 6 6 6 5 3 1 3 3 4 10 15 15 12 14 13 6 1 2 3 2 2 2 2 2 1 0 1 2 2 2 3 3 2 3 2 1 2 2 2 2 2 0 1 1 1 4 6 4 1 4 4 2 4 6 5 8 10 10 10
17 18 19 19 19 17 15 16 16 13 11 10 11 13 14 15 14 14 17 18 14 9 12 16 16 15 13 12 11 11 10 9 7 3 1 2 7 11 8 6 8 10 9 4 2 2 2 1 1 1 1 2 1 1 2 2 2 2 2 1 2 2 2 2 1 2 1 2 2 1 0 1 2 5 4 2 2 3 2 4 8 9 8 10 10 10 10
15 17 18 19 18 16 14 15 16 15 12 10 10 11 12 12 12 13 16 18 17 14 12 13 15 15 15 15 14 13 13 12 10 6 1 3 12 11 2 2 8 9 6 4 2 2 1 1 1 1 1 2 2 1 2 2 2 2 2 1 2 2 1 1 1 1 1 2 2 1 2 1 5 4 1 2 1 4 8 9 10 10 10 10 10 9 8
14 15 17 19 17 14 13 13 14 15 13 10 9 9 10 11 10 10 10 12 13 12 11 11 12 13 13 14 14 13 13 12 12 9 4 6 12 8 2 0 6 5 3 3 2 1 1 1 1 1 1 1 1 0 1 1 2 3 2 1 2 3 2 1 1 1 0 1 2 1 0 4 5 2 2 5 7 11 13 10 9 10 9 8 8 8 7
12 13 15 17 17 14 11 12 13 14 13 11 8 7 8 9 9 8 9 10 11 10 9 9 10 11 12 12 12 13 13 13 13 12 8 7 11 11 5 2 4 3 3 3 1 1 1 1 1 1 1 2 2 1 1 0 1 2 3 1 2 3 2 2 2 2 2 3 3 2 2 5 7 9 11 12 13 13 11 9 10 9 7 7 7 6 6
10 11 13 15 16 13 10 10 11 13 13 12 8 6 6 7 7 7 7 8 10 10 8 7 7 9 11 12 10 11 12 12 14 15 11 7 8 10 9 7 5 4 4 4 2 1 1 1 1 1 1 2 2 1 2 2 2 2 2 2 3 2 1 1 3 4 5 6 6 3 3 6 11 14 13 12 12 10 8 8 8 8 6 5 5 5 5
8 9 11 13 14 13 10 8 8 10 11 12 10 8 6 4 4 5 4 4 6 6 6 7 7 7 9 11 11 10 11 11 12 14 15 12 8 7 8 9 8 6 6 6 4 2 2 1 0 1 2 1 1 1 2 2 2 1 1 2 2 2 2 2 3 3 2 3 3 2 3 5 8 10 10 10 9 8 6 6 6 5 4 4 4 5 7
7 7 9 11 12 12 10 8 7 8 9 11 11 8 5 3 3 4 4 4 5 4 3 4 7 7 7 9 11 10 10 11 11 10 12 14 12 9 7 8 9 8 8 8 6 4 4 3 1 1 2 1 2 1 1 1 1 1 1 1 1 2 3 3 3 2 2 3 4 3 3 4 5 7 9 9 8 7 6 5 4 3 2 3 5 6 8
6 6 6 8 10 10 9 7 7 7 8 10 10 9 7 5 5 4 4 4 5 4 2 1 4 6 7 9 10 9 9 10 10 8 8 10 12 12 9 8 9 8 7 8 8 7 5 3 1 2 2 2 2 1 1 1 1 0 1 2 1 1 1 2 2 3 4 3 4 5 4 3 4 6 8 8 7 5 4 3 2 1 2 4 6 7 9
5 5 5 6 7 8 7 6 5 5 6 7 8 9 9 8 6 5 4 4 3 3 2 1 2 4 6 8 9 8 8 9 8 7 8 8 9 11 10 8 8 7 6 6 7 7 5 3 2 2 2 2 2 2 1 1 1 0 2 2 1 0 2 3 3 4 3 2 6 9 4 2 6 9 8 7 5 4 3 2 0 2 3 5 6 7 7
5 3 3 3 5 5 5 4 4 4 5 5 6 6 7 7 7 7 7 6 4 3 2 1 1 2 4 6 8 7 7 7 7 6 7 7 8 10 9 7 8 8 8 6 5 4 3 2 2 1 1 1 2 1 1 1 1 1 2 2 3 1 4 3 2 3 1 3 12 13 3 3 7 12 9 6 5 3 2 1 2 3 4 5 6 5 4
5 3 3 3 3 3 3 2 2 3 4 4 4 4 5 6 7 7 6 6 5 4 2 2 2 2 3 4 5 6 6 5 5 6 7 7 7 9 9 7 7 8 8 7 5 3 2 2 2 2 2 2 1 1 1 0 0 1 2 1 3 3 5 3 3 3 2 3 13 14 4 4 7 10 8 6 5 3 2 2 2 4 4 4 3 2 3
6 4 4 4 3 3 2 2 0 2 3 3 3 2 2 4 6 6 5 5 4 3 2 2 1 1 2 4 4 5 7 7 6 6 7 6 5 7 7 6 6 6 6 6 4 2 2 3 3 3 3 3 2 1 1 1 0 1 1 1 3 6 8 6 6 5 5 7 13 13 4 3 6 8 6 5 4 3 3 2 3 4 3 2 2 3 4
6 5 5 5 4 4 3 3 2 2 1 2 3 2 1 2 5 6 5 4 4 3 2 1 1 1 2 3 4 5 7 8 7 7 6 4 4 5 5 4 4 4 4 4 3 2 2 2 2 2 2 4 2 1 1 1 0 0 2 5 4 5 7 6 6 6 7 9 11 10 5 4 6 6 5 5 4 3 3 3 4 3 0 2 3 4 5
6 5 5 5 5 5 5 4 3 3 3 2 3 3 2 4 7 7 4 3 3 2 2 1 1 1 1 2 3 4 6 6 7 8 6 4 4 5 4 3 2 3 3 2 2 2 1 1 2 1 1 3 2 1 1 1 1 1 3 7 6 5 5 4 4 5 7 7 8 7 5 6 6 5 4 4 4 3 3 3 3 2 2 2 3 4 5
7 6 6 5 5 6 5 5 4 3 3 3 3 4 5 7 8 6 3 2 2 3 2 2 2 0 1 1 2 4 5 5 7 8 6 4 6 6 4 2 2 2 2 2 1 1 1 1 1 1 1 2 2 1 1 1 2 2 3 7 8 6 5 4 3 5 6 6 5 4 3 4 5 5 5 4 3 4 4 4 3 3 2 2 2 4 5
8 7 7 6 5 5 5 5 4 4 3 4 4 3 5 7 8 5 2 1 1 2 3 3 2 0 2 1 2 4 5 5 6 7 5 6 8 7 3 3 2 1 2 3 1 0 1 1 1 1 2 3 3 0 1 3 4 4 3 6 8 8 6 5 4 5 6 7 5 3 1 1 3 5 5 3 3 4 5 5 5 4 3 1 1 4 6
8 8 6 5 4 4 4 4 4 4 4 4 4 4 5 7 7 3 0 1 1 2 2 2 2 1 1 1 1 4 5 4 5 6 5 6 8 6 4 3 2 1 2 3 1 1 1 1 0 1 1 2 2 1 2 3 4 5 6 8 10 9 8 6 5 6 7 7 6 4 2 1 3 4 3 2 3 5 6 6 6 6 4 2 2 4 6
9 7 5 3 3 3 3 4 4 4 4 4 4 4 6 6 4 1 1 1 2 2 2 2 1 1 0 1 0 3 4 3 5 5 5 5 6 5 4 3 1 2 4 2 1 1 1 0 1 0 0 0 1 3 4 5 4 5 7 9 11 10 8 5 4 6 7 7 7 5 3 3 3 3 2 3 4 6 6 7 7 6 4 3 4 6 7
8 6 3 0 2 3 3 4 4 4 4 3 3 4 5 4 1 1 1 1 2 2 2 2 1 1 1 1 1 3 3 4 5 4 4 4 5 4 4 3 1 3 3 1 1 2 1 0 0 0 1 2 4 6 7 8 7 6 6 7 9 11 10 6 5 5 7 7 7 6 5 6 6 4 3 5 6 6 7 7 7 5 4 4 6 7 8
5 3 2 2 2 3 3 3 3 3 3 2 1 2 2 2 2 2 1 1 1 1 2 1 1 1 2 1 2 3 3 4 4 2 3 5 4 2 3 3 2 2 2 0 1 2 2 1 1 0 2 5 6 7 8 8 8 8 7 6 7 10 11 9 6 5 5 7 7 8 8 9 9 7 6 6 7 7 7 7 6 5 5 6 7 8 8
6 4 3 3 2 2 2 2 2 3 2 1 0 0 1 2 2 1 2 3 2 1 2 2 1 1 2 1 2 2 2 2 2 1 2 3 3 2 2 2 2 2 1 0 1 2 1 0 1 1 2 3 3 5 8 8 5 6 7 7 6 8 10 9 6 4 3 3 4 5 6 7 8 8 8 8 8 7 7 6 5 5 5 6 7 8 7
5 5 4 4 2 1 1 2 2 3 2 2 2 2 2 3 2 1 2 2 2 1 2 2 2 1 2 2 2 1 2 2 1 1 1 1 1 1 1 1 1 2 1 1 1 2 1 0 1 1 1 2 3 8 10 8 4 4 8 10 9 7 8 7 4 4 4 4 4 4 4 4 6 7 8 9 9 8 6 6 5 5 6 6 6 6 6
5 5 5 4 4 5 6 6 5 4 3 3 2 2 2 2 2 2 2 1 1 2 3 3 2 2 2 1 2 1 2 2 1 1 1 1 1 1 0 0 1 1 1 1 2 2 1 0 1 1 2 2 5 10 10 6 1 4 9 12 10 8 8 7 5 5 5 5 4 4 3 4 7 9 9 9 10 8 7 6 5 4 4 5 6 6 6
5 5 4 4 5 7 7 6 5 4 2 2 2 2 1 1 1 2 2 2 1 2 4 4 2 2 3 2 1 1 1 1 1 1 1 0 1 1 0 1 1 0 1 1 2 1 0 0 1 2 3 4 6 10 10 5 1 6 10 11 9 8 8 6 5 5 4 4 5 4 3 3 7 10 11 10 10 9 7 6 4 4 4 5 6 6 7
4 3 4 5 5 5 4 3 4 3 2 2 2 1 1 2 1 1 1 2 2 3 5 5 4 2 3 2 1 1 1 1 1 1 1 0 0 1 1 1 1 0 1 1 1 1 0 1 1 2 4 6 7 9 9 6 1 8 10 10 9 8 7 5 5 5 4 4 5 5 5 4 7 9 10 10 10 9 7 6 5 5 6 6 6 6 7
4 3 3 3 3 3 2 2 3 3 1 1 1 1 0 1 1 1 1 3 2 4 6 7 5 3 3 3 1 1 0 1 1 1 1 0 1 1 1 0 1 1 1 1 0 0 1 2 3 5 6 6 7 9 10 7 2 8 11 11 10 9 8 6 5 5 4 4 4 6 7 7 8 9 9 9 10 10 8 7 6 6 7 8 7 6 6
4 3 2 2 2 3 1 0 2 2 1 0 0 1 1 1 1 1 1 3 4 5 8 8 5 4 4 3 2 1 1 1 1 1 0 1 1 0 1 1 0 0 1 1 1 1 1 1 2 4 6 6 7 9 11 10 5 7 12 13 12 10 8 6 5 5 4 3 3 5 7 8 10 10 9 9 10 10 9 7 6 6 8 8 7 6 6
5 4 3 2 2 3 2 1 1 1 1 2 1 1 2 1 1 1 3 5 5 7 9 8 6 4 4 3 2 1 1 1 1 0 1 1 0 1 1 0 0 0 1 0 1 2 2 2 2 4 5 5 6 8 11 12 8 6 11 13 13 11 8 6 6 6 5 4 3 4 5 7 10 10 9 9 9 10 9 7 6 7 8 8 8 7 6
4 3 3 2 1 1 1 1 1 1 2 3 2 2 1 1 2 2 3 4 5 6 7 6 4 2 2 1 1 1 1 0 1 1 1 1 1 0 1 0 1 1 1 1 3 3 2 2 3 4 5 6 7 8 10 12 10 5 10 13 13 11 9 7 6 6 5 4 5 5 5 6 8 9 10 10 10 10 10 8 6 7 8 9 8 7 7
4 3 2 1 1 0 1 2 2 2 3 4 3 2 1 3 4 3 2 3 5 5 5 3 1 1 1 0 1 1 1 1 1 1 1 1 1 1 1 1 1 1 1 2 2 2 2 3 3 4 5 7 8 9 10 11 11 6 6 11 13 12 10 8 7 6 5 4 5 5 5 5 6 7 9 10 11 11 11 9 7 7 8 8 8 7 6
3 2 2 2 2 1 2 3 1 1 3 5 3 1 1 3 4 3 2 3 4 4 4 2 0 1 1 1 0 0 0 1 1 1 0 1 1 1 0 1 2 2 2 2 3 4 6 6 4 3 5 6 7 8 9 10 11 9 5 6 9 10 10 8 6 5 5 5 5 4 4 4 5 6 8 10 11 12 12 10 8 7 7 7 7 7 6
2 1 1 2 2 1 3 3 1 1 2 5 4 2 2 2 3 3 2 4 5 5 4 2 1 1 0 0 0 0 1 2 1 1 1 2 1 1 1 2 3 2 2 2 3 8 11 8 5 5 6 7 7 8 10 11 11 11 9 7 7 9 10 9 8 7 7 6 6 5 5 6 6 6 7 8 9 10 12 12 10 9 8 7 7 7 6
2 1 1 2 2 3 4 3 1 1 2 3 3 3 2 2 3 3 4 5 6 4 2 2 1 1 1 1 1 1 1 1 2 1 1 2 2 2 2 3 4 4 4 2 4 8 10 10 9 9 8 8 9 11 13 14 13 13 12 10 9 9 9 10 10 10 9 8 8 8 8 7 7 7 7 8 9 10 12 13 13 12 10 8 7 7 6
2 1 1 3 4 5 5 4 4 5 5 5 5 4 4 4 5 5 6 6 5 3 2 2 1 1 1 1 1 1 0 1 1 1 2 2 2 3 3 3 4 5 6 6 8 9 10 11 11 11 10 10 12 14 15 15 15 14 12 10 9 9 10 11 11 11 10 9 9 9 9 9 8 8 9 9 10 12 14 15 15 14 12 10 9 8 7
Wind_Direction
2 4 5 6 6 5 3 360 357 356 358 5 11 23 40 48 42 11 11 106 30 25 157 354 2 184 332 296 222 259 243 224 268 100 61 246 221 60 206 215 217 217 242 232 210 237 237 185 190 195 157 168 184 37 16 6 4 75 42 360 50 134 92 92 114 82 333 241 177 191 122 120 103 54 54 146 136 103 140 174 155 154 159 145 175 193 137
5 7 8 9 9 7 6 4 1 1 0 2 6 16 40 44 43 36 35 348 337 11 141 344 333 287 326 354 3 325 285 19 297 209 52 20 77 140 227 162 205 314 46 126 180 247 233 257 12 65 139 130 347 7 51 82 39 9 42 153 61 360 338 56 129 139 140 168 188 200 152 85 75 57 360 327 98 106 121 102 124 174 182 163 191 192 127
9 9 9 10 10 10 10 8 6 6 5 2 4 13 24 22 40 37 36 44 53 62 74 278 241 307 324 10 19 354 344 18 15 88 76 42 58 91 329 338 332 7 70 98 47 26 360 351 30 15 41 77 17 2 39 99 101 65 93 117 104 84 49 328 171 172 180 174 177 200 155 124 85 69 9 359 74 134 139 132 174 191 174 170 208 171 125
10 10 10 11 11 12 12 11 11 12 10 7 13 29 35 32 35 7 21 45 54 51 37 20 6 306 330 44 20 355 314 347 18 55 66 41 45 55 12 347 325 49 71 116 63 26 5 17 72 46 11 37 15 12 41 72 92 102 101 98 94 100 80 16 30 99 143 156 360 320 303 112 75 51 24 6 335 305 121 135 176 177 150 163 241 122 138
11 11 10 11 12 13 14 15 16 17 17 16 28 46 51 54 47 338 340 29 33 30 27 20 8 337 2 45 4 354 339 324 6 36 52 48 43 58 42 20 18 324 51 122 89 12 9 34 48 30 354 302 313 22 55 54 44 90 105 94 91 94 60 21 35 57 60 53 40 16 37 68 53 27 7 357 341 319 5 110 122 133 149 170 190 114 137
13 11 10 10 12 13 15 19 21 22 23 24 42 56 52 56 67 25 25 22 352 5 8 360 6 22 26 54 19 6 14 24 20 5 18 50 30 16 48 25 16 339 254 144 85 7 18 39 20 345 2 346 319 21 57 38 23 39 108 88 101 115 81 7 40 60 55 44 42 46 62 80 66 45 26 3 5 27 61 58 12 12 142 149 126 111 97
14 12 11 11 11 12 15 19 24 29 29 29 51 61 50 55 74 44 53 68 32 20 347 333 10 31 17 33 30 13 16 25 22 351 336 42 14 9 66 20 8 13 23 119 90 25 34 58 27 347 8 18 6 28 54 3 8 26 78 27 77 120 127 147 114 69 29 11 13 33 53 65 55 46 40 26 33 54 68 61 51 79 78 78 102 99 81
15 13 13 12 11 12 14 18 25 32 34 37 52 57 47 49 50 27 55 61 33 30 2 331 13 31 10 23 25 14 13 8 5 17 27 36 359 6 47 15 1 28 46 68 84 38 12 47 34 348 338 23 31 43 88 347 345 1 62 9 352 103 154 170 127 87 9 341 348 15 45 53 46 34 21 21 39 52 60 60 54 76 88 95 96 91 80
16 15 14 13 12 13 14 18 25 31 37 44 48 48 43 45 41 29 61 43 359 9 6 342 25 31 11 16 8 9 10 351 341 48 50 58 46 352 347 345 344 30 42 54 64 15 325 292 315 314 316 358 15 17 74 20 329 352 30 355 330 67 127 154 124 129 185 292 347 14 39 40 19 355 360 8 19 39 57 60 17 18 123 131 112 94 92
18 16 16 14 15 15 15 20 27 31 38 43 42 39 35 38 42 39 71 63 8 5 356 359 35 39 3 6 5 360 351 346 358 77 42 36 41 19 352 336 329 37 41 29 349 322 307 288 295 297 289 290 296 332 39 55 356 345 2 4 358 103 146 151 142 157 165 117 83 61 49 25 308 289 50 31 44 96 85 52 22 359 317 152 121 112 118
19 18 18 16 17 19 19 23 28 32 36 38 36 35 32 35 43 37 54 92 16 2 5 24 34 27 348 351 350 340 343 354 14 43 15 5 20 26 24 19 34 77 27 342 321 312 304 304 312 295 289 356 75 100 93 78 53 27 6 360 27 129 147 146 137 149 139 108 115 114 130 186 271 337 292 261 100 105 100 61 25 16 27 80 92 107 116
19 19 19 19 20 23 24 28 30 32 35 34 33 36 32 33 44 44 55 92 18 358 29 47 29 360 347 352 337 323 342 345 357 15 5 331 4 24 28 26 33 7 338 335 334 328 154 114 99 119 75 73 99 99 82 67 55 53 54 47 61 113 120 119 85 100 120 125 129 136 176 222 348 358 333 171 116 105 97 78 45 35 60 92 99 106 112
19 19 20 21 23 25 28 32 34 34 35 34 33 35 31 31 43 53 61 85 32 356 11 18 7 7 7 8 359 330 342 350 350 12 21 335 2 23 26 19 356 333 335 343 358 41 138 123 82 132 30 23 51 64 58 50 41 48 53 47 51 102 111 110 73 73 129 147 155 161 184 333 12 36 62 94 113 112 93 74 47 25 28 87 106 111 115
19 20 21 23 26 29 30 34 38 38 36 34 31 31 31 31 43 65 72 84 73 15 20 343 353 3 4 6 360 336 351 7 10 24 21 8 6 14 12 8 358 347 344 347 3 27 90 91 52 117 14 5 36 48 50 47 33 32 36 31 50 111 119 112 80 55 143 134 133 86 349 302 157 137 128 73 91 360 73 81 65 28 4 62 111 119 125
19 20 22 24 27 30 31 34 40 42 39 35 31 32 37 38 44 69 83 94 114 37 28 12 325 332 336 355 7 4 3 8 359 342 4 15 18 11 9 9 8 7 8 5 17 36 60 8 55 136 337 26 136 24 17 46 35 30 26 22 49 70 53 84 120 60 82 105 116 126 255 218 166 133 107 23 360 272 248 130 99 52 6 42 118 122 125
18 20 22 24 28 30 31 34 39 44 45 41 36 38 45 50 55 69 79 82 105 37 12 8 355 346 344 7 21 24 16 354 343 323 351 8 4 0 7 14 16 18 22 32 51 44 38 43 81 130 91 19 360 38 30 30 40 35 28 35 55 63 50 66 104 96 104 122 145 181 191 180 74 100 23 336 311 244 217 161 125 94 19 96 119 107 95
18 20 21 24 27 30 31 34 38 45 50 49 48 47 49 56 64 74 79 78 82 69 29 29 33 32 27 20 19 17 360 347 356 6 352 348 344 347 357 12 21 20 19 26 77 35 50 76 54 81 93 17 342 31 43 24 41 21 2 18 43 51 39 61 115 131 146 139 147 215 206 46 8 331 323 328 317 190 190 187 155 140 120 112 105 88 73
18 19 19 22 27 30 31 33 37 47 54 55 57 58 58 61 67 76 81 81 81 65 46 48 48 46 48 41 28 21 7 357 2 350 326 335 340 336 344 360 13 13 14 23 89 43 51 65 35 57 81 16 334 234 41 38 47 10 342 354 33 41 28 38 120 118 128 149 141 148 237 185 274 304 323 337 154 172 201 190 131 127 124 108 96 86 79
16 17 18 19 24 31 33 34 36 44 56 61 63 66 66 66 70 78 83 83 83 73 61 60 57 54 55 51 45 42 37 29 24 14 341 352 347 333 329 1 13 4 7 28 62 43 53 67 32 16 34 29 26 43 39 35 18 355 347 8 32 36 39 44 81 87 90 126 117 94 157 109 330 313 328 9 175 187 160 114 116 121 121 110 98 91 86
13 14 16 17 23 31 36 37 38 41 50 60 62 63 65 65 69 79 84 86 86 80 69 64 60 56 53 47 42 38 35 32 26 22 53 342 345 342 338 47 2 353 4 30 40 33 43 58 31 343 30 41 34 66 79 75 47 12 358 31 36 19 26 75 84 79 113 115 99 164 172 40 345 316 313 16 356 138 125 118 116 117 117 110 99 89 83
11 12 14 16 21 31 39 41 42 42 46 56 63 64 66 66 67 74 84 89 90 83 73 68 63 58 53 47 43 38 35 32 24 16 12 5 6 15 116 352 348 355 10 16 36 52 27 36 31 19 49 26 351 69 107 103 83 46 11 58 60 11 356 125 125 340 288 140 113 120 30 1 348 342 89 78 98 122 124 119 113 115 114 104 91 82 68
7 9 12 15 19 29 40 43 43 42 44 52 63 71 69 63 64 74 84 88 90 90 86 79 70 62 56 51 47 43 40 37 32 26 26 36 40 50 75 46 15 32 18 359 45 69 24 43 60 49 65 38 29 64 59 43 95 45 1 8 52 30 25 70 74 52 46 64 82 94 29 30 58 87 97 99 107 115 115 107 104 103 98 87 80 73 50
1 5 11 14 18 27 39 42 39 38 40 45 54 67 69 63 65 78 87 90 94 94 88 84 79 63 53 50 49 44 40 42 44 40 41 52 54 52 50 40 32 34 24 21 50 74 13 50 56 58 67 40 28 70 68 58 66 37 20 44 63 61 49 39 77 102 88 61 60 66 45 57 79 93 101 104 104 101 93 89 89 84 75 65 53 38 13
356 0 7 12 16 25 36 42 39 34 33 37 42 45 53 57 57 66 79 90 97 94 79 71 69 54 43 43 45 44 42 44 50 49 48 51 53 51 46 39 37 38 33 32 46 79 93 91 92 70 68 29 340 46 70 67 62 43 53 75 60 41 47 75 103 125 113 88 92 79 57 76 92 100 104 104 102 99 90 80 80 75 60 33 7 355 338
351 353 3 9 13 20 29 39 45 39 34 37 37 35 41 52 41 49 71 81 83 91 89 64 58 54 49 45 44 45 44 45 51 53 48 46 46 47 46 41 39 39 38 40 49 63 71 74 76 83 80 31 339 14 56 53 55 35 31 67 60 39 55 87 104 75 59 107 127 120 99 110 121 122 124 123 116 109 100 88 82 69 26 353 337 330 324
347 347 353 2 9 16 25 36 45 42 36 39 40 38 45 50 40 45 73 79 77 83 95 81 64 60 55 48 47 47 44 44 50 49 38 37 38 37 36 38 42 42 43 49 56 62 71 78 63 61 72 31 5 34 64 40 55 53 45 53 21 357 53 101 106 100 90 94 128 144 136 138 156 153 145 140 132 124 120 113 91 20 333 322 314 313 315
344 342 343 352 1 9 19 32 44 40 33 37 43 44 46 50 53 61 65 63 76 90 80 75 76 66 58 54 54 53 45 42 45 40 29 28 28 27 29 37 45 45 45 51 55 56 64 76 63 48 52 42 45 55 49 49 74 96 78 63 352 320 136 122 113 128 130 156 173 169 151 131 176 175 166 160 158 147 135 130 23 311 307 308 307 309 315
336 327 320 331 346 357 7 22 41 41 30 30 40 44 45 48 58 67 62 55 66 86 76 49 56 70 75 67 56 50 46 42 39 31 21 14 14 22 30 41 48 46 45 50 54 49 44 57 72 63 47 67 78 62 25 69 85 61 78 47 354 74 151 157 145 141 119 187 180 175 130 53 166 177 178 177 176 167 161 210 276 290 296 298 300 310 325
326 311 292 291 308 332 344 358 35 34 23 18 23 35 43 44 47 55 56 52 58 68 74 75 61 58 76 68 49 37 30 22 13 9 8 5 9 22 35 49 53 46 44 47 51 50 42 50 74 78 50 51 80 37 17 61 75 61 87 32 21 95 140 124 89 107 75 150 176 175 129 68 155 174 180 183 187 203 230 260 286 289 294 300 313 353 8
325 305 285 269 267 285 297 272 242 16 20 21 14 18 49 41 29 32 42 46 50 61 73 78 78 82 76 63 48 32 21 14 6 7 12 19 27 29 35 48 52 44 39 40 39 41 50 57 74 79 59 55 87 107 74 131 162 46 147 150 70 106 123 96 72 98 110 132 164 174 160 113 155 170 183 195 204 224 247 284 296 288 296 342 22 13 353
327 306 289 272 260 260 261 243 232 255 317 21 24 33 83 33 5 6 20 32 37 55 75 67 69 101 84 61 49 31 21 18 17 18 22 35 43 31 28 41 49 36 26 31 42 57 66 56 67 86 57 44 65 111 121 146 180 304 183 172 138 119 124 101 79 101 120 135 159 173 174 161 164 173 194 208 216 232 257 281 282 273 320 53 26 357 342
323 305 288 272 260 253 248 239 234 239 252 301 357 16 27 5 354 355 1 15 28 47 77 75 67 62 11 18 26 20 17 17 15 18 29 48 38 18 12 21 33 22 18 36 59 58 52 45 61 87 55 32 54 116 131 138 196 243 189 178 170 154 149 134 103 114 132 143 153 160 168 182 188 196 206 207 215 237 256 262 249 207 111 59 21 4 352
322 311 298 280 263 254 247 239 235 238 252 281 322 351 360 353 347 345 346 2 40 64 70 72 101 136 334 10 41 25 18 14 9 14 29 33 13 5 2 5 16 26 33 42 36 13 31 84 70 82 78 49 60 116 188 221 223 231 200 185 184 185 186 176 143 139 153 162 161 159 174 192 203 211 207 198 216 237 235 224 203 175 130 75 31 15 4
322 315 306 292 272 257 245 235 233 237 256 281 296 312 336 341 338 334 329 10 67 89 72 60 99 162 336 17 65 26 15 9 5 12 20 7 0 3 6 360 8 56 40 28 26 50 69 59 73 123 107 48 35 78 243 254 239 234 214 190 190 197 201 193 174 165 171 181 194 217 240 180 187 195 197 209 236 223 204 193 187 182 181 198 355 357 356
325 318 310 297 277 252 232 225 225 232 252 267 268 281 314 330 334 333 50 76 79 109 82 57 87 103 3 46 52 3 3 5 2 2 357 350 358 11 11 357 13 61 14 5 35 88 36 4 329 164 115 360 342 219 233 262 249 233 219 203 198 201 201 196 190 186 185 192 210 228 240 163 172 180 192 231 229 199 189 191 193 197 215 249 308 330 334
328 322 317 297 259 229 212 209 209 219 236 241 246 285 315 326 335 11 131 89 68 90 99 86 101 115 104 136 337 343 358 8 359 357 356 348 354 10 15 9 17 358 345 349 64 37 349 250 272 309 35 12 230 225 247 270 265 245 232 221 215 211 206 194 182 182 187 198 212 217 205 185 187 193 214 223 202 189 194 201 200 206 234 274 313 328 330
335 328 333 300 192 194 193 197 202 207 215 221 245 300 320 330 13 130 143 91 58 64 90 114 123 150 174 177 294 330 355 3 353 360 18 3 345 353 15 24 360 334 339 7 64 9 354 144 60 41 195 232 258 269 283 292 289 280 264 242 229 222 212 193 167 166 179 192 204 209 207 204 206 214 220 208 197 197 203 206 207 222 261 298 320 328 330
8 6 39 123 156 173 176 176 178 177 181 204 280 324 351 37 91 95 58 48 53 42 45 63 101 193 185 190 319 327 347 4 5 22 23 4 351 358 21 21 9 351 341 302 337 351 4 62 52 360 252 263 273 290 311 314 296 276 263 247 231 223 216 207 198 188 181 187 203 214 216 216 221 226 220 206 200 202 204 205 216 244 280 305 318 325 328
35 57 84 105 125 159 168 158 162 172 180 201 349 68 61 56 70 50 16 19 30 30 27 31 31 201 200 226 308 318 322 352 15 40 19 7 11 23 15 13 18 12 360 311 345 354 353 13 26 353 279 268 285 329 342 341 313 259 233 209 199 210 212 212 218 223 203 200 219 229 230 229 229 228 219 207 201 200 202 209 231 263 287 303 316 324 326
48 71 82 83 81 87 105 122 149 168 167 130 105 104 73 50 48 29 4 13 30 30 15 7 350 317 264 251 274 323 330 326 332 339 4 21 16 357 4 35 22 360 330 280 344 355 329 246 5 342 266 261 341 351 349 347 325 238 198 177 172 186 197 197 203 213 212 217 235 253 259 240 216 206 204 204 202 201 209 225 247 273 291 304 318 322 320
56 62 64 64 70 83 96 107 114 118 120 115 95 66 49 47 38 23 28 57 40 354 356 356 354 353 342 284 262 293 317 320 324 329 344 12 353 335 322 360 358 360 229 264 328 360 64 119 341 287 259 295 353 359 360 360 325 186 170 164 165 172 176 179 189 199 205 217 233 252 266 238 205 192 189 193 200 207 220 234 249 275 298 312 320 319 314
42 46 61 80 94 102 105 103 94 86 85 87 71 35 360 4 13 16 34 64 30 349 355 356 351 1 11 5 336 324 337 342 335 333 343 352 349 7 73 14 5 32 211 288 339 23 57 306 267 253 280 327 356 3 5 6 198 177 166 165 170 172 171 176 188 192 196 211 221 226 242 228 199 188 184 189 203 215 224 232 247 279 308 320 324 319 313
36 54 82 96 104 112 109 77 51 54 63 57 56 37 345 360 23 11 10 22 20 11 8 3 355 2 14 11 3 7 10 349 328 338 360 360 339 34 63 52 26 360 293 336 22 91 210 241 217 256 319 351 4 2 360 359 205 185 179 177 178 176 175 179 182 182 188 201 206 209 213 205 191 188 191 200 211 218 224 235 255 287 310 319 322 317 311
29 65 106 111 92 85 91 36 25 44 68 49 64 116 91 24 49 180 356 6 3 1 3 1 356 354 1 360 345 305 314 349 350 353 14 38 34 50 64 360 281 303 327 343 17 294 274 248 243 270 308 345 1 356 350 344 269 201 195 191 187 187 191 195 189 183 188 197 204 206 205 199 196 200 207 214 218 220 227 239 260 289 307 315 319 316 311
28 55 97 105 43 30 37 353 13 38 87 157 147 152 150 111 137 173 353 349 335 335 347 351 346 333 330 331 319 288 298 330 327 321 25 50 26 236 215 234 282 360 355 336 314 312 292 253 265 295 317 338 351 350 345 338 304 222 206 203 203 202 204 203 194 188 186 192 212 220 215 210 210 214 220 225 226 225 227 235 258 289 307 316 320 316 310
29 44 65 83 26 13 42 101 41 32 156 185 177 144 145 152 192 260 321 332 327 327 335 343 344 335 327 321 310 308 323 323 311 324 100 91 247 222 189 157 360 27 27 345 282 272 255 250 293 328 333 326 324 333 341 340 321 243 214 211 212 213 213 206 196 194 194 198 217 234 232 224 222 223 225 227 227 227 229 236 260 290 307 316 318 312 309
30 37 49 78 84 8 36 111 153 138 147 155 149 136 129 356 336 332 340 348 346 336 332 331 325 316 320 317 290 292 322 360 269 223 168 176 240 206 100 68 256 205 173 219 246 252 246 254 294 329 338 326 313 317 333 342 335 277 222 214 214 216 218 212 200 196 201 214 232 246 250 240 229 225 225 226 227 228 230 236 259 287 303 313 315 309 307
20 18 32 96 164 267 78 123 134 139 154 162 157 132 77 354 360 20 34 16 7 356 344 336 307 256 267 268 253 283 37 66 240 227 188 175 276 312 6 316 279 233 208 221 227 228 239 261 294 329 342 339 330 327 333 342 344 324 244 219 216 216 219 220 213 205 207 225 240 247 252 253 244 234 229 229 228 226 227 234 254 279 296 308 311 306 305
11 28 79 124 140 140 141 141 121 132 178 181 182 185 320 341 3 28 30 359 354 351 344 345 313 222 249 251 206 238 216 180 213 255 232 226 238 216 170 256 264 255 235 213 223 260 271 268 272 304 316 319 328 336 338 339 342 339 312 248 227 223 226 231 230 222 221 232 242 241 241 247 250 245 241 240 234 227 225 230 245 264 282 296 302 303 307
359 32 124 137 127 137 159 160 121 41 177 185 196 230 277 321 351 1 345 329 329 327 317 297 230 199 224 221 68 299 253 211 177 164 223 224 204 163 187 230 240 233 196 187 274 294 292 279 259 272 292 295 302 317 327 328 326 326 323 302 261 241 237 239 241 239 238 242 249 250 248 249 252 252 254 255 250 238 229 229 237 249 264 279 290 298 305
336 326 210 202 191 175 166 160 163 239 232 241 260 265 260 283 306 311 308 311 316 319 303 255 205 113 86 209 231 260 247 192 168 184 241 229 180 156 194 232 234 224 219 249 302 308 300 284 268 265 274 285 295 304 311 312 307 303 304 303 290 268 256 252 250 247 245 245 248 252 254 256 258 259 258 257 255 247 239 236 238 243 250 261 273 282 291
305 294 258 255 236 209 201 218 251 258 260 272 278 268 258 273 292 296 293 294 298 294 255 215 183 137 180 221 217 187 199 220 219 230 242 232 198 188 214 257 270 259 256 276 298 304 300 293 282 270 268 283 297 301 302 300 294 287 288 295 293 278 265 262 261 257 253 250 250 253 256 257 259 263 263 259 254 252 250 247 244 243 244 250 259 265 272